星链-35923(STARLINK-35923)

导读 | 豆包AI

STARLINK-35923是美国SpaceX星链星座的一员,于2025年11月23日发射升空。星链项目旨在构建全球卫星互联网系统,为全球提供低延迟、高速率的宽带网络覆盖。该卫星继承了星链平台的技术设计,依靠星间链路实现组网通信,进一步扩充了星链星座的部署规模,持续提升全球网络服务覆盖能力。

基本信息
目录编号:
66641
目录名称:
STARLINK-35923
国际标识:
2025-271AA
轨道中心:
EARTH
卫星名称:
星链-35923
卫星全名:
星链-35923(STARLINK-35923)
卫星状态:
在轨 (已飞行132 天)
发射日期:
2025-11-23 UTC
国别 :
美国 (US)
星等 :
--
轨道信息
数据来源 国际轨道数据
星历时间: 2026-04-03T11:06:50+0800
1天前
查看轨道信息
半长轴: 6853.308km
偏心率: 0.0001125
轨道倾角: 53.162°
近地点辐角 85.315°
升交点赤经 26.755°
平近点角 274.798°
近地点: 474.4km
远地点: 475.942km
周期: 94.104分钟
每日圈数: 15.302149
详细信息
固有亮度:
5
最大亮度:
2.5
卫星平台:
Starlink V1.0
覆盖范围:
全球
运营商:
太空探索技术公司
运营商所在国:
美国
制造商(研发单位):
太空探索技术公司
制造商所在国:
美国
使用方式:
暂无
卫星简介
Starlink 计划是 SpaceX 推出的全球卫星互联网项目,通过发射低轨道卫星,为全球尤其是偏远地区提供高速、低延迟的互联网服务。自 2019 年起,Starlink 已部署数千颗卫星,旨在缩小全球数字鸿沟,推动互联网普及。该项目还为军事、航空等行业提供通信支持,带来广泛经济效益。
2D轨道图
3D轨道图
轨道高度分析图
轨道倾角分析图
轨道综合分析图
查看轨道综合分析图